Simultaneous Nadir Overpasses (SNOs) Predictions

Prediction of SNOs between AQUA and METOP-B Satellite Orbit:

Table of predicted SNOs for the next 14.0 days since TLE Epoch: 10/20/2018
Index Date (AQUA) Time (AQUA) Lat,Lon (AQUA) SZA (AQUA ) Date (METOP-B) Time (METOP-B) Lat,Lon (METOP-B) SZA (METOP-B ) Distance(km) Time Diff (sec)
1 10/21/2018 05:25:18 73.93, 92.70 84.53 10/21/2018 05:24:22 73.93, 92.70 84.54 0.48 56
2 10/21/2018 06:14:45 -73.99, -99.79 95.40 10/21/2018 06:15:03 -73.98, -99.87 95.41 2.71 18
3 10/21/2018 07:04:24 74.60, 66.41 85.25 10/21/2018 07:05:30 74.60, 69.06 85.22 78.05 66
4 10/24/2018 00:59:32 73.96, 159.07 85.55 10/24/2018 00:58:42 73.96, 159.18 85.56 3.40 50
5 10/24/2018 01:48:59 -74.01, -33.40 94.39 10/24/2018 01:49:23 -74.00, -33.39 94.39 0.75 24
6 10/26/2018 20:33:46 73.94,-134.45 86.50 10/26/2018 20:33:04 73.94,-134.46 86.50 0.38 42
7 10/26/2018 21:23:14 -74.04, 32.97 93.39 10/26/2018 21:23:44 -74.03, 33.09 93.40 3.60 30
8 10/29/2018 16:08:00 73.94, -67.99 87.44 10/29/2018 16:07:25 73.97, -67.99 87.47 3.42 35
9 10/29/2018 16:57:28 -74.02, 99.45 92.47 10/29/2018 16:58:06 -74.01, 99.44 92.48 2.05 38
10 11/01/2018 11:42:13 73.93, -1.55 88.35 11/01/2018 11:41:46 73.94, -1.64 88.36 2.86 27
11 11/01/2018 12:31:41 -74.02, 165.90 91.56 11/01/2018 12:32:26 -74.03, 165.90 91.55 1.26 45




NCC Satellite Simultaneous Nadir Overpasses (SNOs) Prediction Service
